Tracking 28081 objects as of 27-Sep-2023
HD Live streaming from Space Station
objects crossing your sky now

COSMOS 1408 DEB

Track COSMOS 1408 DEB now!
10-day predictions


NORAD ID: 50020
Int'l Code: 1982-092RG
Perigee: 418.9 km
Apogee: 429.4 km
Inclination: 82.6 °
Period: 92.9 minutes
Semi major axis: 6795 km
RCS: Unknown
Launch date: September 16, 1982
Source: Commonwealth of Independent States (former USSR) (CIS)
Launch site: PLESETSK MISSILE AND SPACE COMPLEX (PKMTR)

Note: This is SATELLITE DEBRIS
Your satellite tracking list
Your tracking list is empty




NASA's NSSDC Master Catalog

Two Line Element Set (TLE):
1 50020U 82092RG  23269.80006941  .00047552  00000-0  84682-3 0  9992
2 50020  82.6269 161.5883 0007750 147.6214 212.5515 15.49892064102235
Source of the keplerian elements: AFSPC